Satellite-Ground Cal/Val Region Overpasses Predictions

Prediction of Satellite NPP Overpassing Cal/Val Region: PacNW

Region Location: (Latitude: 10.00, Longitude: 139.50) to (Latitude: 22.70, Longitude: 165.60).

Table of predicted overpasses for the next 14.0 days since TLE Epoch: 12/30/2023
Interval Starting Time Starting Location Ending Time Ending Location
1 12/30/2023 15:05:18 ( 22.68, 158.69) 12/30/2023 15:08:54 ( 10.00, 155.68)
2 12/31/2023 02:15:10 ( 12.73, 165.59) 12/31/2023 02:17:59 ( 22.65, 163.21)
3 12/31/2023 03:55:54 ( 10.03, 140.84) 12/31/2023 03:57:32 ( 15.79, 139.50)
4 12/31/2023 14:46:18 ( 22.65, 163.44) 12/31/2023 14:49:53 ( 10.03, 160.44)
5 01/01/2024 03:36:53 ( 10.01, 145.60) 01/01/2024 03:40:29 ( 22.69, 142.58)
6 01/01/2024 14:30:22 ( 11.75, 165.59) 01/01/2024 14:30:51 ( 10.05, 165.20)
7 01/01/2024 16:08:46 ( 22.67, 142.82) 01/01/2024 16:12:21 ( 10.04, 139.82)
8 01/02/2024 03:17:52 ( 10.05, 150.34) 01/02/2024 03:21:27 ( 22.67, 147.34)
9 01/02/2024 15:49:45 ( 22.69, 147.58) 01/02/2024 15:53:21 ( 10.01, 144.57)
10 01/03/2024 02:58:51 ( 10.03, 155.10) 01/03/2024 03:02:26 ( 22.65, 152.10)
11 01/03/2024 15:30:44 ( 22.65, 152.33) 01/03/2024 15:34:19 ( 10.03, 149.32)
12 01/04/2024 02:39:49 ( 10.01, 159.86) 01/04/2024 02:43:25 ( 22.69, 156.84)
13 01/04/2024 15:11:43 ( 22.66, 157.08) 01/04/2024 15:15:18 ( 10.04, 154.08)
14 01/05/2024 02:20:49 ( 10.05, 164.60) 01/05/2024 02:24:24 ( 22.68, 161.60)
15 01/05/2024 14:52:42 ( 22.68, 161.84) 01/05/2024 14:56:18 ( 10.00, 158.83)
16 01/06/2024 03:43:17 ( 10.04, 143.99) 01/06/2024 03:46:52 ( 22.67, 140.98)
17 01/06/2024 14:34:50 ( 18.59, 165.59) 01/06/2024 14:37:16 ( 10.02, 163.59)
18 01/06/2024 16:15:10 ( 22.69, 141.23) 01/06/2024 16:17:11 ( 15.59, 139.50)
19 01/07/2024 03:24:16 ( 10.03, 148.74) 01/07/2024 03:27:51 ( 22.65, 145.74)
20 01/07/2024 15:56:10 ( 22.65, 145.97) 01/07/2024 15:59:45 ( 10.03, 142.97)
21 01/08/2024 03:05:14 ( 10.02, 153.50) 01/08/2024 03:08:50 ( 22.70, 150.49)
22 01/08/2024 15:37:08 ( 22.66, 150.73) 01/08/2024 15:40:43 ( 10.04, 147.73)
23 01/09/2024 02:46:13 ( 10.01, 158.26) 01/09/2024 02:49:49 ( 22.69, 155.24)
24 01/09/2024 15:18:07 ( 22.67, 155.48) 01/09/2024 15:21:42 ( 10.05, 152.48)
25 01/10/2024 02:27:12 ( 10.06, 163.00) 01/10/2024 02:30:47 ( 22.68, 160.00)
26 01/10/2024 14:59:05 ( 22.68, 160.24) 01/10/2024 15:02:41 ( 10.00, 157.23)
27 01/11/2024 02:10:48 ( 19.27, 165.60) 01/11/2024 02:11:46 ( 22.67, 164.76)
28 01/11/2024 03:49:41 ( 10.05, 142.38) 01/11/2024 03:53:07 ( 22.15, 139.51)
29 01/11/2024 14:40:04 ( 22.69, 165.00) 01/11/2024 14:43:40 ( 10.01, 161.98)
30 01/11/2024 16:21:34 ( 22.68, 139.62) 01/11/2024 16:21:42 ( 22.22, 139.51)
31 01/12/2024 03:30:39 ( 10.04, 147.14) 01/12/2024 03:34:14 ( 22.67, 144.14)
32 01/12/2024 16:02:32 ( 22.69, 144.38) 01/12/2024 16:06:08 ( 10.01, 141.37)
